ECHOSTAR 14 (36499 NORAD) Tracking and Keplerian Element Data

This shows tracking and keplerian element data for the satellite.

Feedback or suggestion? Click here.




ElementValue
Catalog36499
NameECHOSTAR 14
Epoch Orbit4475
Epoch Day353.55196069
Epoch Year2025
RAAN27.053
Inclination0.0013
Eccentricity0.0002127
Argument of Perigee239.8809
Mean Anonmoly261.2796
Mean Motion1.00273475
Decay Rate2.4E-07
L11 36499U 10010A 25353.55196069 .00000024 00000+0 00000+0 0 9996
L22 36499 0.0013 27.0530 0002127 239.8809 261.2796 1.00273475 44757



Live tracking and technical data element details for ECHOSTAR 14 (NORAD 36499). ECHOSTAR 14 can be tracked NOW for your location showing map with azimuth and elevation plus other details from your city location.







IsCatalogInMostPopularTable: catalog: 36499, numindb: 393
Update: records affected: 1



GetName: 36499 ECHOSTAR 14

Hit Count: updated at: Tue, 20 Jan 2026 19:00:43 GMT